{"data":{"norad_id":59087,"epoch":"2026-09-20T08:19:22.188576Z","epoch_age_seconds":172104,"freshness":"FRESH","line1":"1 59087U 24041P   26263.34678459  .00000192  00000+0  16515-4 0  9998","line2":"2 59087  43.0044 291.2280 0001387 266.8137  93.2556 15.27576414144092","mean_motion":15.27576414,"eccentricity":0.0001387,"inclination_deg":43.0044,"raan_deg":291.228,"arg_perigee_deg":266.8137,"mean_anomaly_deg":93.2556,"bstar":1.6515e-5,"rev_number":14409,"period_min":94.266970005731,"perigee_km":482.10818583386,"apogee_km":484.01148183557,"semimajor_km":6861.1968338347,"source":"CELESTRAK","updated_at":"2026-09-21T09:00:34.036070Z"}}